Current Version              Previous Version:    01  02  03  04  05  06  07  08  09  10  11  12  13  14  15  16  17  18  19  20  21  22  23  24  25  26  27  28  29  30  
   31  32  33  34  35  36  37  38  39  40  41  42  43  44  45  46  47  48  49  50  51  52  53  54  55  56  57  58  59  60  

[Printable]
987
ASUS44 KFWD 241415
RWRTX
NORTH TEXAS HOURLY WEATHER ROUNDUP
NATIONAL WEATHER SERVICE FORT WORTH TX
900 AM CDT THU APR 24 2014

NOTE: "FAIR" INDICATES FEW OR NO CLOUDS BELOW 12,000 FEET WITH NO
SIGNIFICANT WEATHER AND/OR OBSTRUCTIONS TO VISIBILITY.

TXZ118-119-241500-
DALLAS/FORT WORTH METROPLEX

CITY           SKY/WX    TMP DP  RH WIND       PRES   REMARKS
DFW AIRPORT    PTSUNNY   70  61  73 S23G29    29.76F
DALLAS LOVE    CLOUDY    70  61  73 S23G31    29.78F
FTW MEACHAM    PTSUNNY   69  62  78 S22G30    29.76S
DAL-EXECUTIVE  PTSUNNY   70  63  78 S10G25    29.78F
FTW-ALLIANCE   PTSUNNY   68  61  78 S14G26    29.76R
FTW-NAS-JRB    MOSUNNY   72  60  66 S22       29.81F
FTW-SPINKS     MOSUNNY   70  63  78 S16G26    29.79F
ARLINGTON      MOSUNNY   69  62  78 S16G30    29.77F
GRAND PRAIRIE  MOSUNNY   68  61  77 S15G23    29.80S
ADDISON        CLOUDY    70  61  73 S20G30    29.79F
MESQUITE         N/A     66  63  88 S20       29.80F
LANCASTER      CLOUDY    67  61  81 S10G21    29.82F
$$

TXZ091>094-102>105-117-120-121-131>134-241500-
NORTH CENTRAL TEXAS

CITY           SKY/WX    TMP DP  RH WIND       PRES   REMARKS
SHRMAN/DENISON PTSUNNY   67  60  77 S21G26    29.77R
GAINESVILLE    CLOUDY    67  61  83 S14G21    29.76S
BOWIE          MOSUNNY   69  63  80 S16G22    29.73S
BRIDGEPORT     SUNNY     69  59  71 S14       29.77R
DECATUR        PTSUNNY   67  60  78 S15G24    29.76R
DENTON         CLOUDY    68  61  78 S13G22    29.77R
MCKINNEY       CLOUDY    69  61  75 S22G32    29.76F
GREENVILLE     CLOUDY    68  61  77 S17G23    29.80F
ROCKWALL       CLOUDY    67  63  85 SE20      29.79S
TERRELL        CLOUDY    68  64  87 S12G21    29.83S
WAXAHACHIE     CLOUDY    66  62  85 S14G20    29.83F
CLEBURNE       PTSUNNY   66  64  94 S21       29.81F
GRANBURY       MOSUNNY   71  62  72 S16G22    29.80S
$$

TXZ083>090-098>101-113>116-127>130-139>142-154-155-241500-
WESTERN NORTH TEXAS

CITY           SKY/WX    TMP DP  RH WIND       PRES   REMARKS
WICHITA FALLS  SUNNY     66  52  60 NW25G33   29.74R BLWGDUST
WF-KICKAPOO    SUNNY     67  50  55 NW12G23   29.76R
VERNON         SUNNY     64  47  52 NW32G38   29.82R
ABILENE        SUNNY     75  43  31 NW16      29.84R
ABILENE-DYESS  SUNNY     75  32  20 N26G33    29.85R
BRECKENRIDGE   SUNNY     75  59  57 W17       29.79R
GRAHAM         SUNNY     73  61  66 W10       29.77R
MINERAL WELLS  SUNNY     70  61  73 S13G20    29.76S
STEPHENVILLE   SUNNY     67  60  76 S13       29.83S
COMANCHE       SUNNY     69  60  73 SW14G21   29.81S
BROWNWOOD      SUNNY     68  61  77 S12       29.83S
COLEMAN        SUNNY     70  59  69 SW6       29.84R
BRADY          SUNNY     72  61  68 SW7       29.86R
$$

TXZ143>147-156>162-174-175-241500-
CENTRAL TEXAS

CITY           SKY/WX    TMP DP  RH WIND       PRES   REMARKS
WACO           CLOUDY    67  63  87 S12       29.85R
WACO-MCGREGOR  CLOUDY    66  61  82 SW8       29.86R
HILLSBORO      CLOUDY    66  62  85 S13       29.85R FOG
CORSICANA      CLOUDY    70  62  76 S14       29.84R
MEXIA          CLOUDY    68  63  84 S14G21    29.83R
HEARNE         CLOUDY    70  65  83 SE8G17    29.85R
CAMERON        CLOUDY    70  64  83 S9        29.85R
TEMPLE         CLOUDY    66  61  82 S16       29.87R
KILLEEN        CLOUDY    68  63  83 S12       29.85R
KILLEEN-SKYLRK MOSUNNY  N/A N/A N/A S13       29.84R
FORT HOOD      CLOUDY    70  62  76 S12       29.86R
GATESVILLE     PTSUNNY   68  63  83 SW9       29.89R
HAMILTON       CLOUDY    67  62  83 S14G23    29.85S
LAMPASAS       CLOUDY    68  64  86 S8        29.85R
$$

TXZ095>097-106>112-122>126-135>138-148>153-164>167-241500-
EAST TEXAS

CITY           SKY/WX    TMP DP  RH WIND       PRES   REMARKS
PARIS          PTSUNNY   66  61  82 S14G22    29.79S THUNDER
SULPHUR SPRNGS PTSUNNY   69  63  81 S14G21    29.84R
CLARKSVILLE    PTSUNNY   69  65  86 S8        29.82R
MOUNT PLEASANT CLOUDY    69  65  86 S15       29.83F
GILMER         MOSUNNY   70  64  83 S12G18    29.84F
MINEOLA        MOSUNNY   72  64  78 S14G22    29.82S
TYLER          CLOUDY    70  62  76 S17G24    29.83S
LONGVIEW       PTSUNNY   70  63  78 S12       29.84F
MARSHALL       CLOUDY    68  64  86 S10       29.88S
ATHENS         CLOUDY    68  63  83 S16       29.82F
PALESTINE      CLOUDY    69  61  76 S10G20    29.86S HAZE
JACKSONVILLE   CLOUDY    68  62  81 S10G20    29.87S
HENDERSON      CLOUDY    69  63  80 S9G17     29.86S
NACOGDOCHES    CLOUDY    68  63  83 S10       29.88S
LUFKIN         PTSUNNY   72  65  78 S8        29.87F
$$

SUPPLEMENTAL OBSERVATIONS (CENTRAL)

CITY           SKY/WX    TMP DP  RH WIND       PRES   REMARKS
LAKE TEXOMA      N/A     66  61  82 SW17        N/A
CADDO GRASSLND   N/A     70  64  83 S18G25      N/A
PAT MAYSE LAKE   N/A     66  63  88 SE18        N/A
GREENVILLE       N/A     68  63  83 S13G22      N/A
CEDAR HILL       N/A     70  63  78 S14G23      N/A
PALESTINE        N/A     72  64  78 S9G20       N/A
LAKE LIMESTONE   N/A     70  64  83 S10         N/A
MCGREGOR         N/A     68  63  83 SW9G20      N/A
TEMPLE           N/A     68  64  88 S15         N/A
$$

SUPPLEMENTAL OBSERVATIONS (WEST)

CITY           SKY/WX    TMP DP  RH WIND       PRES   REMARKS
MILLERS CREEK    N/A     66  43  42 NW24G32     N/A
POSSUM KINGDOM   N/A     75  63  64 W12G20      N/A
LBJ GRASSLAND    N/A     70  63  78 S12G21      N/A
GRANBURY         N/A    N/A N/A N/A S18G24      N/A
COMANCHE         N/A     72  61  68 SW14G22     N/A
HAMBY            N/A     73  34  23 NW18G28     N/A
IVIE RESERVOIR   N/A     73  63  68 SW7         N/A
COLORADO BEND    N/A     68  61  77 S8          N/A
$$

SUPPLEMENTAL OBSERVATIONS (EAST)

CITY           SKY/WX    TMP DP  RH WIND       PRES   REMARKS
CLARKSVILLE      N/A     68  63  83 S13         N/A
TEXARKANA        N/A     68  63  83 S5          N/A
LINDEN           N/A     68  64  88 S5          N/A
CADDO LAKE       N/A     70  64  83 S5          N/A
GILMER           N/A     72  64  78 S9          N/A
HENDERSON        N/A     70  64  83 S16G25      N/A
LUFKIN           N/A     70  64  83 MISG        N/A
N SABINE NF      N/A     72  66  83 MISG        N/A
S SABINE NF      N/A     72  64  78 S5          N/A
$$

SUPPLEMENTAL OBSERVATIONS ARE A COLLECTION OF AUTOMATED INSTRUMENTS
THAT ARE MAINTAINED BY A VARIETY OF FEDERAL AND STATE AGENCIES.
CERTAIN ELEMENTS...SUCH AS HUMIDITY VALUES AND SUSTAINED WIND
SPEEDS...MAY BE APPROXIMATED.